Terminal Aerodrome Forecast
Issued by NWS Blacksburg, VA

Home | Current Version | Previous Version | Text Only | Print | Product List | Glossary On
Versions: 1 2 3 4 5 6 7 8 9 10 11 12 13 14 15 16 17 18 19 20 21 22 23 24 25 26 27 28 29 30 31 32 33
000
FTUS41 KRNK 271720
TAFDAN
TAF
KDAN 271720Z 2718/2818 01008KT P6SM SKC
     FM280200 VRB03KT P6SM SCT040
      TEMPO 2809/2812 5SM BR
     FM281400 35006KT P6SM SCT035
      AMD NOT SKED=

USA.gov is the U.S. government's official web portal to all federal, state and local government web resources and services.